| time (UTC) | temp C | wind direction | speed KPH | gust KPH | rain 1hr cm | rain 24hr cm | rain mn cm | humidity % | barometer mb |
| 20260506112540 | 8 | 50 | 3.2 | 11.3 | 0.03 | 1.47 | 1.40 | 92 | 1007.3 |
| 20260506111515 | 8 | 46 | 6.4 | 14.5 | 0.03 | 1.47 | 1.40 | 92 | 1007.2 |
| 20260506110552 | 8 | 43 | 4.8 | 14.5 | 0.05 | 1.47 | 1.40 | 93 | 1007.1 |
| 20260506105528 | 8 | 38 | 4.8 | 14.5 | 0.05 | 1.47 | 1.40 | 93 | 1007.1 |
| 20260506104525 | 7 | 31 | 6.4 | 17.7 | 0.05 | 1.50 | 1.40 | 93 | 1007.1 |
| 20260506103519 | 8 | 41 | 4.8 | 12.9 | 0.05 | 1.47 | 1.37 | 94 | 1007.0 |
| 20260506102555 | 8 | 41 | 4.8 | 9.7 | 0.08 | 1.47 | 1.37 | 94 | 1006.9 |
| 20260506101532 | 7 | 43 | 4.8 | 11.3 | 0.10 | 1.47 | 1.37 | 94 | 1007.0 |
| 20260506100529 | 7 | 32 | 3.2 | 6.4 | 0.10 | 1.45 | 1.35 | 94 | 1006.8 |
| 20260506095524 | 7 | 45 | 6.4 | 16.1 | 0.13 | 1.45 | 1.35 | 94 | 1006.8 |
| 20260506094521 | 7 | 42 | 4.8 | 16.1 | 0.15 | 1.45 | 1.35 | 94 | 1006.8 |
| 20260506093517 | 7 | 37 | 3.2 | 9.7 | 0.15 | 1.42 | 1.32 | 94 | 1006.6 |
| 20260506092533 | 7 | 55 | 4.8 | 9.7 | 0.15 | 1.40 | 1.30 | 94 | 1006.7 |
| 20260506091550 | 7 | 34 | 4.8 | 11.3 | 0.15 | 1.37 | 1.27 | 95 | 1006.6 |
| 20260506090525 | 7 | 34 | 4.8 | 12.9 | 0.15 | 1.35 | 1.24 | 95 | 1006.6 |
| 20260506085522 | 7 | 43 | 4.8 | 12.9 | 0.15 | 1.32 | 1.22 | 95 | 1006.5 |
| 20260506084518 | 7 | 26 | 6.4 | 16.1 | 0.15 | 1.30 | 1.19 | 95 | 1006.5 |
| 20260506083534 | 7 | 36 | 3.2 | 11.3 | 0.15 | 1.27 | 1.17 | 95 | 1006.5 |
| 20260506082529 | 7 | 43 | 6.4 | 14.5 | 0.15 | 1.24 | 1.14 | 95 | 1006.3 |
| 20260506081546 | 7 | 29 | 6.4 | 11.3 | 0.15 | 1.22 | 1.12 | 95 | 1006.3 |
| 20260506080522 | 7 | 24 | 1.6 | 6.4 | 0.15 | 1.19 | 1.09 | 95 | 1006.3 |
| 20260506072527 | 7 | 30 | 4.8 | 11.3 | 0.15 | 1.09 | 0.99 | 95 | 1006.1 |
| 20260506071523 | 7 | 28 | 4.8 | 16.1 | 0.15 | 1.07 | 0.97 | 95 | 1006.0 |
| 20260506070519 | 7 | 39 | 4.8 | 12.9 | 0.15 | 1.04 | 0.94 | 95 | 1005.9 |
| 20260506061518 | 8 | 48 | 4.8 | 14.5 | 0.13 | 0.99 | 0.81 | 96 | 1005.7 |
| 20260506060533 | 8 | 19 | 4.8 | 11.3 | 0.13 | 0.97 | 0.79 | 96 | 1005.5 |
| 20260506050550 | 8 | 23 | 3.2 | 6.4 | 0.13 | 0.86 | 0.66 | 96 | 1005.5 |
| 20260506044523 | 8 | 355 | 3.2 | 6.4 | 0.13 | 0.81 | 0.61 | 96 | 1005.4 |
| 20260506043519 | 8 | 354 | 3.2 | 9.7 | 0.13 | 0.81 | 0.58 | 96 | 1005.5 |
| 20260506042535 | 8 | 16 | 4.8 | 12.9 | 0.10 | 0.79 | 0.56 | 96 | 1005.4 |
| 20260506041531 | 9 | 342 | 3.2 | 11.3 | 0.13 | 0.81 | 0.56 | 96 | 1005.5 |
| 20260506040526 | 9 | 3 | 3.2 | 6.4 | 0.13 | 0.79 | 0.53 | 96 | 1005.5 |
| 20260506035523 | 9 | 19 | 3.2 | 4.8 | 0.13 | 0.76 | 0.51 | 96 | 1005.6 |
| 20260506034519 | 9 | 27 | 3.2 | 9.7 | 0.10 | 0.74 | 0.48 | 96 | 1005.6 |
| 20260506033556 | 9 | 49 | 1.6 | 4.8 | 0.10 | 0.71 | 0.46 | 96 | 1005.6 |
| 20260506032530 | 9 | 39 | 3.2 | 6.4 | 0.13 | 0.71 | 0.46 | 96 | 1005.8 |
| 20260506031545 | 9 | 29 | 3.2 | 9.7 | 0.13 | 0.69 | 0.43 | 96 | 1005.7 |
| 20260506030522 | 9 | 35 | 4.8 | 14.5 | 0.10 | 0.66 | 0.41 | 96 | 1005.8 |
| 20260506025519 | 9 | 23 | 3.2 | 6.4 | 0.10 | 0.64 | 0.38 | 96 | 1005.9 |
| 20260506024533 | 9 | 57 | 3.2 | 6.4 | 0.13 | 0.64 | 0.38 | 96 | 1006.0 |
| 20260506023530 | 9 | 41 | 4.8 | 12.9 | 0.10 | 0.61 | 0.36 | 96 | 1006.0 |
| 20260506022547 | 9 | 39 | 4.8 | 12.9 | 0.10 | 0.58 | 0.33 | 96 | 1006.0 |
| 20260506021523 | 9 | 18 | 3.2 | 9.7 | 0.10 | 0.56 | 0.30 | 96 | 1006.1 |
| 20260506020539 | 9 | 29 | 3.2 | 11.3 | 0.10 | 0.56 | 0.30 | 96 | 1006.2 |
| 20260506015516 | 9 | 20 | 4.8 | 11.3 | 0.10 | 0.53 | 0.28 | 96 | 1006.1 |
| 20260506014531 | 9 | 35 | 4.8 | 11.3 | 0.10 | 0.51 | 0.25 | 96 | 1006.1 |
| 20260506013527 | 9 | 38 | 3.2 | 6.4 | 0.10 | 0.51 | 0.25 | 96 | 1006.2 |
| 20260506012523 | 9 | 28 | 4.8 | 11.3 | 0.10 | 0.48 | 0.23 | 96 | 1006.3 |
| 20260506011520 | 9 | 19 | 3.2 | 9.7 | 0.10 | 0.46 | 0.20 | 96 | 1006.3 |
| 20260506010515 | 9 | 13 | 3.2 | 9.7 | 0.10 | 0.48 | 0.20 | 96 | 1006.3 |
| 20260506005532 | 9 | 32 | 3.2 | 9.7 | 0.10 | 0.46 | 0.18 | 96 | 1006.5 |
| 20260506004548 | 9 | 45 | 3.2 | 9.7 | 0.08 | 0.43 | 0.15 | 96 | 1006.5 |
| 20260506003543 | 9 | 34 | 3.2 | 12.9 | 0.10 | 0.46 | 0.15 | 96 | 1006.5 |
| 20260506002519 | 9 | 31 | 4.8 | 9.7 | 0.08 | 0.43 | 0.13 | 96 | 1006.6 |
| 20260506001535 | 9 | 45 | 4.8 | 11.3 | 0.08 | 0.43 | 0.10 | 95 | 1006.7 |
| 20260506000531 | 9 | 36 | 3.2 | 9.7 | 0.08 | 0.43 | 0.10 | 95 | 1006.8 |
| 20260505235528 | 9 | 11 | 3.2 | 6.4 | 0.08 | 0.43 | 0.08 | 95 | 1006.9 |
| 20260505234545 | 9 | 35 | 3.2 | 11.3 | 0.08 | 0.43 | 0.08 | 95 | 1007.1 |
| 20260505233521 | 9 | 7 | 4.8 | 11.3 | 0.05 | 0.43 | 0.05 | 95 | 1007.1 |
| 20260505232518 | 9 | 15 | 3.2 | 6.4 | 0.05 | 0.43 | 0.05 | 95 | 1007.1 |
| 20260505231534 | 9 | 18 | 3.2 | 11.3 | 0.03 | 0.43 | 0.03 | 94 | 1007.1 |
| 20260505230531 | 9 | 25 | 4.8 | 16.1 | 0.03 | 0.46 | 0.03 | 94 | 1007.1 |
| 20260505225548 | 9 | 14 | 4.8 | 9.7 | 0.00 | 0.43 | 0.00 | 94 | 1007.3 |
| 20260505224524 | 9 | 12 | 3.2 | 11.3 | 0.00 | 0.46 | 0.00 | 93 | 1007.3 |
| 20260505223521 | 9 | 23 | 4.8 | 12.9 | 0.00 | 0.46 | 0.00 | 93 | 1007.5 |
| 20260505222517 | 9 | 29 | 4.8 | 12.9 | 0.00 | 0.46 | 0.00 | 93 | 1007.5 |
| 20260505221533 | 10 | 14 | 4.8 | 11.3 | 0.00 | 0.46 | 0.00 | 93 | 1007.5 |
| 20260505220528 | 9 | 15 | 3.2 | 9.7 | 0.03 | 0.46 | 0.00 | 93 | 1007.4 |
| 20260505215525 | 9 | 31 | 4.8 | 11.3 | 0.03 | 0.46 | 0.46 | 94 | 1007.5 |
| 20260505214540 | 10 | 1 | 3.2 | 11.3 | 0.03 | 0.46 | 0.46 | 94 | 1007.6 |
| 20260505213517 | 10 | 40 | 3.2 | 6.4 | 0.03 | 0.46 | 0.46 | 94 | 1007.8 |
| 20260505212533 | 10 | 33 | 4.8 | 11.3 | 0.05 | 0.46 | 0.46 | 94 | 1007.9 |
| 20260505211530 | 10 | 41 | 4.8 | 12.9 | 0.05 | 0.48 | 0.46 | 94 | 1007.9 |
| 20260505210525 | 10 | 17 | 3.2 | 6.4 | 0.03 | 0.46 | 0.43 | 94 | 1007.9 |
| 20260505205521 | 10 | 6 | 3.2 | 9.7 | 0.03 | 0.46 | 0.43 | 94 | 1007.9 |
| 20260505204517 | 10 | 31 | 4.8 | 11.3 | 0.03 | 0.46 | 0.43 | 94 | 1007.9 |
| 20260505203553 | 10 | 28 | 3.2 | 14.5 | 0.03 | 0.46 | 0.43 | 93 | 1008.1 |
| 20260505202529 | 10 | 13 | 3.2 | 6.4 | 0.00 | 0.43 | 0.41 | 93 | 1008.0 |
| 20260505201525 | 10 | 347 | 0.0 | 1.6 | 0.00 | 0.43 | 0.41 | 92 | 1008.0 |
| 20260505200541 | 10 | 13 | 1.6 | 4.8 | 0.00 | 0.43 | 0.41 | 92 | 1008.1 |
| 20260505195517 | 10 | 30 | 1.6 | 4.8 | 0.00 | 0.43 | 0.41 | 91 | 1007.9 |
| 20260505194533 | 10 | 31 | 1.6 | 6.4 | 0.00 | 0.43 | 0.41 | 90 | 1008.0 |
| 20260505193649 | 10 | 38 | 1.6 | 4.8 | 0.00 | 0.43 | 0.41 | 89 | 1007.9 |
| 20260505192525 | 11 | 49 | 1.6 | 6.4 | 0.00 | 0.46 | 0.41 | 88 | 1007.8 |
| 20260505191522 | 11 | 58 | 1.6 | 4.8 | 0.00 | 0.46 | 0.41 | 87 | 1007.9 |
| 20260505190519 | 11 | 42 | 1.6 | 6.4 | 0.00 | 0.48 | 0.41 | 86 | 1007.7 |
| 20260505185556 | 11 | 36 | 3.2 | 12.9 | 0.00 | 0.53 | 0.41 | 86 | 1007.7 |
| 20260505184531 | 11 | 34 | 3.2 | 9.7 | 0.00 | 0.58 | 0.41 | 86 | 1007.8 |
| 20260505183529 | 11 | 38 | 3.2 | 11.3 | 0.00 | 0.66 | 0.41 | 86 | 1007.8 |
| 20260505182524 | 11 | 20 | 3.2 | 9.7 | 0.00 | 0.76 | 0.41 | 86 | 1007.8 |
| 20260505181521 | 11 | 46 | 4.8 | 14.5 | 0.00 | 0.81 | 0.41 | 87 | 1007.7 |
| 20260505180517 | 11 | 23 | 3.2 | 12.9 | 0.00 | 0.81 | 0.41 | 87 | 1007.7 |
| 20260505175534 | 11 | 49 | 3.2 | 11.3 | 0.00 | 0.84 | 0.41 | 88 | 1007.8 |
| 20260505174530 | 11 | 31 | 3.2 | 6.4 | 0.00 | 0.91 | 0.41 | 88 | 1007.9 |
| 20260505173526 | 10 | 35 | 3.2 | 6.4 | 0.00 | 0.99 | 0.41 | 88 | 1008.0 |
| 20260505172543 | 10 | 37 | 3.2 | 6.4 | 0.00 | 0.99 | 0.41 | 88 | 1007.9 |
| 20260505171519 | 10 | 36 | 3.2 | 9.7 | 0.00 | 0.99 | 0.41 | 88 | 1007.8 |
| 20260505170515 | 10 | 38 | 1.6 | 6.4 | 0.00 | 0.99 | 0.41 | 89 | 1007.9 |
| 20260505165531 | 10 | 44 | 3.2 | 11.3 | 0.03 | 0.99 | 0.41 | 89 | 1008.1 |
| 20260505164528 | 10 | 36 | 3.2 | 9.7 | 0.03 | 0.99 | 0.41 | 89 | 1008.1 |
| 20260505163524 | 10 | 29 | 3.2 | 6.4 | 0.03 | 0.99 | 0.41 | 89 | 1008.1 |
| 20260505162520 | 10 | 33 | 4.8 | 9.7 | 0.03 | 0.99 | 0.41 | 90 | 1008.0 |
| 20260505161517 | 10 | 19 | 4.8 | 9.7 | 0.03 | 0.99 | 0.41 | 90 | 1008.2 |
| 20260505160532 | 10 | 24 | 4.8 | 12.9 | 0.03 | 0.99 | 0.41 | 90 | 1008.2 |
| 20260505152518 | 10 | 33 | 6.4 | 12.9 | 0.00 | 0.97 | 0.38 | 90 | 1008.4 |
| 20260505151533 | 10 | 34 | 4.8 | 11.3 | 0.00 | 0.97 | 0.38 | 91 | 1008.5 |
| 20260505150528 | 10 | 27 | 4.8 | 9.7 | 0.00 | 0.97 | 0.38 | 91 | 1008.6 |
| 20260505140546 | 10 | 37 | 4.8 | 9.7 | 0.00 | 0.97 | 0.38 | 92 | 1009.0 |
| 20260505124517 | 10 | 21 | 4.8 | 12.9 | 0.00 | 0.97 | 0.38 | 94 | 1009.3 |
| 20260505123533 | 10 | 24 | 3.2 | 6.4 | 0.00 | 0.97 | 0.38 | 94 | 1009.5 |
| 20260505122529 | 9 | 9 | 3.2 | 11.3 | 0.00 | 0.97 | 0.38 | 94 | 1009.5 |
| 20260505121525 | 9 | 23 | 3.2 | 11.3 | 0.00 | 0.97 | 0.38 | 94 | 1009.5 |
| 20260505120542 | 9 | 10 | 4.8 | 12.9 | 0.00 | 0.97 | 0.38 | 94 | 1009.5 |
| 20260505115519 | 9 | 19 | 3.2 | 6.4 | 0.00 | 0.97 | 0.38 | 94 | 1009.6 |
| 20260505114515 | 9 | 19 | 4.8 | 14.5 | 0.03 | 0.97 | 0.38 | 94 | 1009.7 |
| 20260505113532 | 9 | 36 | 3.2 | 9.7 | 0.03 | 0.97 | 0.38 | 94 | 1009.6 |